Location: Godiavel Galaoual
(15.2485°N, 12.6604°W)
Time: 00:26:38
(UTC+00:00)

Transit 4A - Pass Details

Date: 15 June 2021
Orbit: 872 x 972 km, 66.8° (Epoch: 29 July)

Event Time Altitude Azimuth Distance (km) Brightness Sun altitude
Rises 10:30:37 0° 207° (SSW) 3,612 10.7 55.9°
Reaches altitude 10° 10:33:12 10° 210° (SSW) 2,655 10.1 56.5°
Maximum altitude 10:39:19 66° 291° (WNW) 1,005 8.8 57.9°
Drops below altitude 10° 10:45:18 10° 13° (NNE) 2,587 10.6 59.3°
Sets 10:47:48 0° 16° (NNE) 3,514 11.2 59.8°
